Vorticity
4 3 3 5 7 8 8 7 7 7 8 8 8 8 8 7 7 7 8 8 9 10 10 10 10 10 10 10 10 10 10 10 10 10 10 10 11 12 12 11 10 9 7 6 7 7 8 9 10 11 12 13 14 13 13 12 12 13 13 15 16 17 16 13 10 7 6 5 4
6 3 2 2 4 6 7 8 7 7 7 7 7 7 7 8 8 8 8 9 9 10 10 10 10 10 10 10 10 10 10 10 10 10 10 10 11 12 12 12 10 9 7 6 7 8 8 9 10 12 13 14 14 13 13 12 13 14 16 18 18 16 14 11 8 6 4 4 3
11 6 2 1 2 3 6 7 8 7 7 6 7 7 7 7 8 8 8 9 9 10 10 10 10 10 10 10 10 10 10 10 10 10 9 10 10 11 12 12 11 9 7 6 7 8 9 10 11 13 14 14 14 13 12 12 13 15 18 20 18 15 12 8 6 4 4 4 3
18 13 7 2 0 0 2 5 7 8 7 6 6 6 7 7 7 8 8 9 9 10 10 10 10 10 10 11 10 10 10 10 10 9 9 10 10 11 11 12 11 9 8 7 8 8 9 10 12 13 14 14 13 12 12 12 14 17 19 19 16 13 9 6 4 4 3 3 3
21 20 15 7 2 -1 -1 1 4 7 8 7 7 6 6 7 7 8 8 9 9 9 10 10 11 11 11 11 11 10 10 10 10 9 9 10 10 10 11 11 10 9 8 8 8 9 10 11 12 13 14 13 13 12 13 14 16 18 18 17 14 11 7 5 4 3 3 2 3
18 22 22 18 10 3 -2 -2 0 4 7 8 7 7 6 6 7 7 8 8 9 10 10 11 11 11 11 11 11 10 10 10 10 9 9 10 10 10 11 11 10 9 8 8 9 10 10 11 13 13 13 13 13 13 15 16 18 18 17 15 11 8 6 4 3 3 3 3 3
13 17 22 25 20 12 4 -2 -2 0 4 6 7 7 7 6 6 6 7 7 8 9 10 10 11 11 11 11 11 11 10 10 10 9 9 10 10 10 11 11 10 9 8 9 10 10 11 12 13 13 13 13 13 14 16 18 18 17 15 12 9 6 5 4 3 3 3 3 3
11 13 17 23 25 21 14 5 -0 -2 0 3 6 7 7 7 6 6 6 7 8 8 9 10 11 11 11 11 11 11 10 10 10 10 9 10 10 10 10 11 10 9 9 9 10 11 12 12 13 13 13 13 13 15 16 18 18 16 13 10 7 5 4 3 3 3 3 3 3
13 12 13 17 22 25 23 17 7 1 -2 -0 3 6 7 7 7 6 6 6 7 8 8 9 10 11 11 12 11 11 11 10 10 10 10 10 10 10 11 11 10 9 9 9 10 12 12 13 13 13 13 13 14 15 16 17 16 13 11 8 6 4 4 3 3 3 3 3 3
15 12 11 11 16 20 24 25 18 10 3 -1 1 3 5 7 7 7 7 6 6 7 7 8 9 10 11 12 12 11 11 10 10 10 10 10 10 10 11 11 10 9 9 10 11 12 13 13 13 13 13 13 14 15 15 15 13 11 9 6 5 4 3 3 3 3 3 3 3
18 15 12 10 11 14 18 23 24 20 13 5 2 2 3 6 7 8 8 7 7 7 7 7 9 10 11 12 12 12 11 11 10 10 10 10 10 10 11 11 10 9 9 10 11 13 13 13 13 12 12 13 13 14 14 14 12 10 8 6 5 4 3 3 3 3 3 3 3
21 19 16 12 11 11 13 16 21 22 20 14 7 4 2 4 6 8 9 9 8 7 6 7 8 9 10 12 12 12 12 11 11 10 10 10 10 10 11 11 10 9 9 10 12 13 13 13 12 11 11 12 13 13 13 12 10 8 7 6 4 4 3 3 3 3 3 4 3
23 21 19 16 13 11 10 11 15 19 22 21 15 9 5 3 5 7 9 10 9 8 7 6 7 8 10 11 12 12 12 12 11 10 10 10 10 10 11 11 11 10 9 10 12 13 13 13 11 10 10 10 11 11 11 10 8 7 6 6 4 4 3 3 3 4 4 4 4
22 22 21 20 17 13 11 10 11 14 18 21 20 15 10 5 5 6 8 10 10 9 8 7 7 8 9 10 12 12 13 12 12 11 10 10 10 10 11 11 11 10 10 10 12 13 13 13 11 10 9 9 10 10 9 8 7 6 6 5 5 4 4 3 4 4 4 4 4
20 21 22 21 20 17 14 11 10 11 13 17 20 19 15 10 6 5 6 9 10 10 9 7 7 8 8 10 11 12 13 13 12 11 10 10 10 10 10 11 11 10 10 10 12 13 13 13 10 9 8 8 8 8 8 7 6 5 5 5 5 4 4 4 4 5 5 5 4
18 20 22 21 21 19 17 13 11 10 11 13 17 19 18 15 10 7 6 7 9 10 10 8 8 8 8 9 11 12 13 13 12 12 11 10 10 10 10 11 11 10 10 10 12 13 13 13 10 8 7 7 7 7 7 6 5 5 5 5 5 4 4 4 5 5 5 5 4
15 18 20 21 21 21 20 17 13 11 10 11 13 16 18 17 14 9 6 6 7 9 9 9 8 8 8 9 10 11 12 13 13 12 11 10 10 10 11 11 11 11 10 10 12 13 14 13 10 8 7 7 6 6 6 6 5 5 5 5 5 5 4 4 5 5 5 5 4
12 15 18 20 21 21 21 21 17 14 11 10 12 13 16 17 16 13 9 6 6 7 8 9 9 9 9 9 10 11 12 13 13 12 11 11 10 10 11 11 11 11 10 10 12 13 14 13 11 8 7 6 6 6 5 5 5 5 5 5 6 5 5 5 5 5 6 5 5
10 13 15 18 20 21 21 22 20 17 14 11 11 12 13 15 16 14 12 8 6 6 6 8 8 9 9 9 10 11 12 13 13 12 12 11 11 10 11 11 11 11 10 10 11 13 14 13 11 9 7 6 6 5 5 5 5 5 5 5 6 6 6 5 5 6 6 5 5
9 10 13 15 18 20 21 21 22 20 17 13 12 12 12 13 14 14 13 11 8 6 6 6 8 9 9 10 10 11 12 13 13 13 12 11 11 11 11 11 11 11 11 10 11 12 13 13 11 9 7 6 6 5 5 5 5 5 5 5 6 6 6 6 6 6 6 6 5
8 9 11 13 16 18 20 21 21 21 20 16 13 12 12 12 13 13 13 12 10 8 6 6 7 8 9 10 10 11 11 12 13 13 12 12 11 11 11 11 11 11 11 10 11 12 13 13 12 10 7 6 6 5 5 5 5 5 5 5 6 6 6 6 6 6 6 6 6
7 8 9 11 14 16 19 20 21 21 21 19 16 13 12 12 12 13 13 13 12 10 7 6 7 8 9 10 10 11 11 12 13 13 12 12 11 11 11 11 11 11 11 10 10 11 12 13 12 10 8 6 6 5 5 5 5 5 5 5 6 6 6 6 6 6 6 6 6
8 8 8 10 12 15 17 20 20 21 21 21 18 15 13 12 12 13 13 13 13 11 9 7 7 8 9 10 10 11 12 12 13 13 12 12 12 12 12 12 12 12 11 11 10 11 12 13 12 11 9 7 6 6 5 5 5 5 5 5 5 6 6 6 6 6 6 6 6
8 8 8 9 10 13 15 18 20 20 21 21 20 17 14 12 12 12 13 13 14 13 11 9 8 8 9 10 10 11 12 12 13 13 13 12 12 12 12 12 12 12 11 11 10 11 11 12 12 11 10 8 6 6 6 5 5 5 5 5 5 5 5 5 6 6 6 6 6
9 8 8 8 9 11 13 16 18 20 21 21 21 20 17 13 12 12 13 13 14 14 13 10 8 8 9 10 11 11 12 12 13 13 13 12 12 12 12 12 12 12 12 11 11 11 11 11 12 11 10 9 7 6 6 6 5 5 5 5 5 5 5 5 5 5 5 6 6
9 9 8 8 8 10 11 14 16 19 20 22 22 21 18 15 13 12 12 13 14 15 14 12 9 8 8 9 10 11 12 13 13 13 13 12 12 12 12 12 13 13 12 11 11 11 11 11 11 11 11 9 8 7 6 6 5 5 5 5 5 5 4 5 5 5 5 5 5
10 9 9 8 8 9 10 12 15 18 20 21 21 21 20 18 14 12 12 13 14 15 15 14 11 8 8 9 10 11 12 12 13 13 13 12 12 12 12 13 13 13 13 12 11 11 11 10 11 11 11 10 9 7 6 6 6 5 5 5 5 5 4 4 4 4 5 5 5
10 10 10 9 8 8 9 11 13 16 19 20 21 22 22 20 16 13 12 13 14 15 15 15 12 9 7 8 9 10 11 12 13 13 13 12 12 12 12 13 13 13 13 12 12 11 11 10 11 11 11 10 9 8 7 6 6 6 5 5 5 5 4 4 4 4 4 5 5
11 10 10 9 8 8 9 10 12 14 17 20 21 22 22 22 18 15 13 12 13 14 15 15 13 11 9 8 8 9 10 12 13 13 13 13 12 12 12 12 13 13 13 13 12 11 11 10 10 11 11 10 10 9 7 6 6 6 6 5 5 5 4 4 3 4 4 5 5
11 11 10 10 9 8 8 9 11 14 16 19 20 22 22 22 20 17 13 12 13 14 15 17 15 13 10 8 8 8 9 11 12 13 13 13 12 12 12 12 13 13 14 13 13 12 11 10 10 10 11 10 10 9 8 7 6 6 6 6 6 5 5 4 3 4 4 4 5
12 12 11 10 9 8 8 9 11 13 16 18 20 21 22 22 22 19 15 13 13 13 14 16 16 15 13 10 9 9 9 10 12 13 13 13 12 12 11 12 12 13 14 14 13 12 11 10 10 10 10 10 10 9 8 7 7 6 6 6 6 6 5 4 3 4 4 4 4
12 12 11 11 9 8 8 9 11 13 15 18 20 21 21 22 23 21 18 14 13 13 13 14 15 16 15 13 12 10 9 9 11 13 13 13 12 12 11 11 12 13 14 14 14 13 12 11 11 11 10 10 10 9 8 8 7 7 6 7 6 6 5 4 4 4 4 4 4
13 12 12 11 10 9 9 9 11 13 16 18 20 21 21 22 23 22 20 15 13 12 13 14 15 16 17 16 13 11 9 8 10 12 13 13 13 12 12 11 12 13 14 15 14 13 12 11 11 11 11 10 10 9 8 8 7 7 7 7 7 6 5 4 4 4 4 4 4
13 13 12 11 10 10 10 10 12 14 16 18 20 21 22 22 23 23 21 17 14 12 12 13 15 16 17 17 15 12 9 7 10 12 13 14 13 12 12 11 12 13 13 14 14 14 13 11 11 11 10 10 10 9 9 8 8 7 7 7 7 6 6 5 4 4 4 4 4
13 13 12 11 11 10 10 11 12 14 16 18 20 21 22 22 22 23 22 20 16 13 11 12 13 15 16 17 16 13 10 7 9 11 13 14 13 12 12 11 12 12 13 14 14 14 13 12 11 11 10 10 10 10 9 8 8 7 7 7 7 7 6 6 5 4 4 4 5
13 12 11 10 10 10 10 11 12 14 16 18 20 21 22 22 22 23 23 22 18 14 12 11 12 14 15 17 16 14 10 7 8 10 13 14 13 13 12 11 11 12 13 14 14 14 13 12 11 11 10 10 10 10 9 9 8 8 7 7 7 7 7 6 5 5 5 5 5
12 11 10 10 9 9 9 10 12 13 15 17 19 21 22 23 23 23 23 23 19 16 13 11 12 13 14 16 16 14 11 8 8 10 12 13 13 13 12 11 11 12 13 14 14 14 14 13 12 11 11 10 10 10 10 9 8 8 8 8 8 8 7 7 6 6 6 5 5
11 10 9 8 8 8 8 9 11 12 14 16 18 20 22 23 23 23 24 23 21 18 14 12 12 13 14 15 16 14 12 9 7 9 11 13 13 13 12 11 11 11 12 13 14 14 14 13 12 12 11 11 10 10 10 9 9 8 8 8 8 8 8 8 7 6 6 6 6
10 8 7 7 7 6 7 8 10 11 13 15 17 20 22 23 23 24 24 23 22 19 16 12 12 12 13 14 15 15 13 10 8 8 9 12 13 13 12 11 11 11 12 13 14 14 14 13 13 12 11 11 11 10 10 9 9 9 8 8 9 9 8 8 8 7 7 6 6
9 8 7 6 6 6 6 7 9 10 13 15 17 19 20 22 23 24 24 24 23 21 17 13 12 12 13 14 15 15 13 11 8 7 8 11 13 13 12 11 11 11 12 13 14 14 14 14 13 12 12 11 11 10 10 10 9 9 9 9 9 9 9 9 9 8 7 7 6
10 8 7 6 6 6 7 8 9 10 12 14 16 18 20 21 23 24 24 24 24 22 18 15 13 12 12 13 14 15 14 12 9 8 7 9 12 12 12 12 11 11 12 13 14 14 14 14 13 13 12 11 11 11 10 10 10 9 9 9 10 10 10 10 9 8 8 7 6
Height
3010 3010 3011 3011 3011 3011 3011 3012 3012 3012 3013 3013 3014 3014 3014 3015 3015 3016 3016 3017 3018 3018 3019 3019 3020 3020 3021 3021 3022 3022 3023 3023 3024 3024 3025 3026 3026 3026 3027 3028 3029 3029 3030 3031 3031 3032 3033 3033 3034 3034 3034 3034 3035 3035 3036 3036 3037 3038 3039 3039 3040 3041 3042 3043 3044 3044 3044 3045 3046
3008 3008 3009 3009 3009 3010 3010 3010 3010 3011 3011 3011 3012 3012 3013 3013 3014 3014 3015 3015 3016 3017 3017 3018 3018 3019 3019 3020 3020 3021 3021 3022 3022 3023 3024 3024 3024 3025 3025 3026 3027 3028 3029 3029 3030 3031 3031 3032 3032 3033 3033 3034 3034 3034 3035 3035 3036 3037 3038 3039 3040 3041 3041 3042 3043 3044 3044 3044 3045
3005 3006 3006 3007 3007 3008 3008 3009 3009 3009 3009 3010 3010 3011 3011 3011 3012 3012 3013 3014 3014 3015 3015 3016 3016 3017 3017 3018 3019 3019 3019 3020 3020 3021 3022 3022 3023 3024 3024 3025 3026 3027 3027 3028 3029 3029 3030 3030 3031 3032 3032 3033 3033 3033 3034 3034 3035 3037 3037 3038 3039 3040 3041 3041 3042 3043 3044 3044 3044
3003 3004 3004 3004 3005 3005 3006 3007 3007 3007 3008 3008 3009 3009 3009 3009 3010 3011 3011 3012 3013 3013 3014 3014 3014 3015 3015 3016 3017 3017 3018 3018 3019 3019 3020 3021 3021 3022 3023 3024 3024 3025 3026 3027 3027 3028 3029 3029 3030 3030 3031 3031 3032 3032 3033 3034 3034 3036 3037 3038 3039 3039 3040 3041 3042 3042 3043 3044 3044
3000 3001 3001 3002 3003 3003 3004 3004 3005 3006 3006 3007 3007 3007 3007 3008 3008 3009 3009 3010 3011 3011 3012 3012 3013 3013 3014 3014 3015 3015 3016 3017 3017 3018 3019 3019 3020 3020 3021 3022 3023 3024 3024 3025 3026 3027 3027 3028 3029 3029 3030 3030 3031 3031 3032 3033 3034 3035 3036 3037 3038 3039 3039 3040 3041 3042 3042 3043 3043
2998 2998 2999 2999 3000 3001 3001 3002 3003 3004 3004 3004 3005 3005 3005 3006 3007 3007 3008 3008 3009 3009 3010 3010 3011 3011 3012 3012 3013 3014 3014 3015 3016 3016 3017 3018 3018 3019 3020 3021 3021 3022 3023 3024 3025 3025 3026 3027 3028 3028 3029 3029 3030 3030 3031 3032 3033 3034 3035 3036 3037 3038 3039 3040 3040 3041 3042 3042 3043
2996 2996 2996 2996 2997 2998 2999 2999 3000 3001 3002 3002 3003 3003 3004 3004 3004 3005 3006 3006 3007 3008 3008 3009 3009 3010 3010 3011 3011 3012 3013 3013 3014 3015 3015 3016 3017 3018 3018 3019 3020 3021 3022 3023 3023 3024 3025 3026 3026 3027 3028 3028 3029 3030 3031 3032 3033 3034 3034 3036 3037 3038 3039 3039 3040 3041 3041 3042 3042
2994 2994 2994 2994 2994 2995 2996 2997 2998 2999 2999 3000 3000 3001 3002 3002 3003 3003 3004 3004 3005 3006 3006 3007 3007 3008 3009 3009 3009 3010 3011 3011 3012 3013 3014 3014 3015 3016 3017 3018 3019 3019 3020 3021 3022 3023 3024 3024 3025 3026 3027 3027 3028 3029 3030 3031 3032 3033 3034 3035 3036 3037 3038 3039 3039 3040 3041 3041 3042
2991 2991 2991 2992 2992 2992 2993 2994 2995 2996 2997 2997 2998 2999 2999 3000 3000 3001 3002 3002 3003 3004 3004 3005 3005 3006 3006 3007 3008 3008 3009 3010 3010 3011 3012 3013 3014 3014 3015 3016 3017 3018 3019 3020 3021 3022 3022 3023 3024 3025 3026 3026 3027 3028 3029 3030 3031 3032 3033 3034 3035 3036 3037 3038 3039 3039 3040 3041 3041
2989 2989 2989 2989 2989 2990 2990 2991 2992 2993 2994 2995 2995 2996 2997 2998 2998 2999 3000 3000 3001 3002 3002 3003 3003 3004 3004 3005 3006 3006 3007 3008 3009 3009 3010 3011 3012 3013 3014 3014 3015 3016 3017 3018 3019 3020 3021 3022 3023 3024 3025 3025 3026 3027 3028 3029 3030 3031 3033 3034 3035 3036 3037 3037 3038 3039 3039 3040 3041
2987 2987 2987 2987 2987 2988 2988 2988 2989 2990 2991 2992 2993 2994 2994 2995 2996 2997 2998 2998 2999 3000 3000 3001 3001 3002 3003 3003 3004 3004 3005 3006 3007 3008 3009 3009 3010 3011 3012 3013 3014 3015 3016 3017 3018 3019 3020 3021 3022 3023 3024 3024 3025 3026 3027 3028 3029 3031 3032 3033 3034 3035 3036 3037 3038 3038 3039 3039 3040
2985 2985 2984 2984 2985 2985 2985 2986 2986 2987 2988 2989 2990 2991 2992 2993 2994 2994 2995 2996 2997 2998 2998 2999 2999 3000 3000 3001 3002 3003 3003 3004 3005 3006 3007 3008 3009 3009 3010 3011 3012 3013 3014 3015 3016 3018 3019 3020 3021 3022 3023 3024 3024 3025 3027 3028 3029 3030 3031 3032 3033 3034 3035 3036 3037 3038 3039 3039 3039
2983 2983 2983 2982 2983 2983 2983 2984 2984 2984 2985 2986 2987 2988 2989 2990 2991 2992 2993 2994 2994 2995 2996 2997 2997 2998 2999 2999 3000 3001 3001 3002 3003 3004 3005 3006 3007 3008 3009 3010 3011 3012 3013 3014 3015 3016 3017 3018 3019 3020 3021 3022 3024 3025 3026 3027 3028 3029 3030 3032 3033 3034 3034 3035 3036 3037 3038 3039 3039
2981 2981 2980 2980 2980 2980 2981 2981 2981 2982 2983 2983 2984 2985 2986 2988 2989 2989 2990 2991 2992 2993 2994 2994 2995 2996 2996 2997 2998 2999 2999 3000 3001 3002 3003 3004 3005 3006 3007 3008 3009 3010 3011 3013 3014 3015 3016 3017 3018 3019 3020 3021 3023 3024 3025 3026 3027 3028 3029 3031 3032 3033 3034 3035 3036 3036 3037 3038 3038
2979 2979 2979 2978 2978 2978 2978 2979 2979 2979 2980 2981 2981 2982 2984 2985 2986 2987 2988 2989 2990 2991 2992 2992 2993 2994 2994 2995 2996 2997 2998 2998 2999 3000 3001 3002 3003 3004 3005 3006 3008 3009 3010 3011 3012 3013 3014 3016 3017 3018 3019 3020 3022 3023 3024 3025 3026 3027 3029 3030 3031 3032 3033 3034 3035 3036 3036 3037 3038
2977 2977 2977 2976 2976 2976 2976 2976 2977 2977 2978 2978 2979 2980 2981 2982 2983 2984 2985 2986 2987 2988 2989 2990 2991 2991 2992 2993 2994 2994 2995 2996 2997 2998 2999 3000 3001 3002 3004 3005 3006 3007 3008 3009 3011 3012 3013 3014 3016 3017 3018 3019 3020 3022 3023 3024 3025 3026 3028 3029 3030 3031 3032 3033 3034 3035 3036 3036 3037
2975 2975 2974 2974 2974 2974 2974 2974 2974 2974 2975 2976 2977 2977 2978 2979 2980 2981 2983 2984 2985 2986 2987 2988 2989 2989 2990 2991 2992 2993 2994 2994 2995 2996 2997 2998 2999 3000 3002 3003 3004 3005 3007 3008 3009 3010 3012 3013 3014 3016 3017 3018 3019 3020 3022 3023 3024 3025 3027 3028 3029 3030 3031 3032 3033 3034 3035 3036 3036
2974 2973 2973 2972 2972 2972 2972 2972 2972 2972 2973 2973 2974 2975 2975 2976 2977 2979 2980 2981 2982 2983 2984 2985 2986 2987 2988 2989 2989 2990 2991 2992 2993 2994 2995 2996 2998 2999 3000 3001 3002 3004 3005 3006 3008 3009 3010 3011 3013 3014 3016 3017 3018 3019 3021 3022 3023 3024 3026 3027 3028 3029 3030 3031 3032 3033 3034 3035 3035
2971 2971 2971 2970 2970 2970 2970 2969 2970 2970 2970 2971 2972 2972 2973 2974 2975 2976 2977 2978 2979 2980 2982 2983 2984 2984 2985 2986 2987 2988 2989 2990 2991 2992 2994 2994 2996 2997 2998 2999 3001 3002 3003 3004 3006 3007 3009 3010 3011 3013 3014 3016 3017 3018 3020 3021 3022 3023 3024 3026 3027 3028 3029 3030 3031 3032 3033 3034 3035
2969 2969 2969 2968 2968 2968 2968 2968 2968 2968 2968 2969 2969 2970 2971 2972 2972 2973 2974 2976 2977 2978 2979 2980 2981 2982 2983 2984 2985 2986 2987 2988 2989 2990 2991 2993 2994 2995 2996 2997 2999 3000 3001 3003 3004 3005 3007 3008 3010 3011 3013 3014 3016 3017 3019 3020 3021 3022 3024 3025 3026 3027 3028 3029 3030 3031 3032 3033 3034
2967 2967 2966 2966 2966 2965 2965 2965 2965 2965 2966 2966 2967 2967 2968 2969 2970 2971 2972 2973 2974 2975 2977 2978 2979 2980 2981 2982 2983 2984 2985 2986 2987 2988 2989 2991 2992 2993 2994 2995 2997 2998 3000 3001 3003 3004 3005 3007 3008 3010 3011 3013 3014 3016 3017 3019 3020 3021 3022 3024 3025 3026 3027 3029 3029 3030 3031 3032 3033
2965 2965 2964 2964 2964 2964 2963 2963 2963 2963 2964 2964 2964 2965 2966 2967 2968 2968 2969 2970 2972 2973 2974 2975 2976 2977 2978 2979 2980 2981 2983 2984 2985 2986 2987 2989 2990 2991 2992 2994 2995 2996 2998 2999 3001 3002 3004 3005 3007 3008 3010 3011 3013 3014 3016 3017 3019 3020 3021 3022 3024 3025 3026 3027 3029 3029 3030 3031 3032
2963 2963 2962 2962 2962 2961 2961 2961 2961 2961 2961 2962 2962 2963 2963 2964 2965 2966 2967 2968 2969 2970 2971 2972 2974 2975 2976 2977 2978 2979 2980 2981 2983 2984 2985 2987 2988 2989 2990 2992 2993 2994 2996 2997 2999 3000 3002 3004 3005 3006 3008 3009 3011 3013 3014 3016 3017 3019 3020 3021 3022 3024 3025 3026 3027 3028 3029 3030 3031
2961 2960 2960 2960 2959 2959 2959 2959 2959 2959 2959 2959 2960 2960 2961 2961 2962 2963 2964 2965 2966 2967 2969 2970 2971 2972 2974 2975 2976 2977 2978 2979 2980 2982 2983 2984 2986 2987 2988 2989 2991 2992 2994 2995 2997 2999 3000 3002 3003 3005 3006 3008 3010 3011 3013 3014 3016 3017 3018 3020 3021 3022 3024 3025 3026 3027 3028 3029 3030
2959 2959 2958 2958 2957 2957 2957 2957 2957 2957 2957 2957 2957 2958 2958 2959 2960 2961 2962 2963 2964 2964 2966 2967 2969 2970 2971 2972 2974 2974 2976 2977 2978 2979 2981 2982 2984 2985 2986 2988 2989 2990 2992 2994 2995 2997 2999 3000 3002 3003 3005 3006 3008 3010 3011 3013 3014 3016 3017 3018 3019 3021 3022 3024 3025 3026 3027 3028 3029
2957 2956 2956 2955 2955 2955 2955 2954 2954 2954 2954 2955 2955 2955 2956 2956 2957 2958 2959 2960 2961 2962 2963 2964 2966 2967 2969 2970 2971 2972 2973 2974 2976 2977 2978 2980 2981 2983 2984 2986 2987 2989 2990 2992 2993 2995 2997 2998 3000 3001 3003 3004 3006 3008 3010 3011 3013 3014 3015 3017 3018 3019 3021 3022 3023 3025 3026 3027 3028
2955 2954 2954 2953 2953 2953 2953 2952 2952 2952 2952 2952 2953 2953 2954 2954 2955 2956 2957 2958 2959 2960 2961 2962 2963 2965 2966 2967 2969 2970 2971 2972 2974 2975 2976 2978 2979 2981 2982 2984 2985 2986 2988 2989 2991 2993 2995 2996 2998 3000 3001 3003 3004 3006 3008 3009 3011 3013 3014 3015 3017 3018 3019 3021 3022 3024 3025 3026 3027
2952 2952 2952 2951 2951 2951 2950 2950 2950 2950 2950 2950 2950 2950 2951 2952 2952 2953 2954 2955 2956 2957 2958 2959 2961 2962 2964 2965 2966 2967 2969 2970 2971 2972 2974 2975 2977 2979 2980 2982 2983 2984 2986 2988 2989 2991 2993 2994 2996 2998 2999 3001 3003 3005 3006 3008 3009 3011 3013 3014 3015 3017 3018 3019 3021 3022 3024 3024 3026
2950 2949 2949 2949 2949 2949 2948 2948 2948 2948 2948 2948 2948 2948 2949 2949 2950 2951 2952 2953 2954 2955 2956 2957 2958 2959 2961 2962 2964 2965 2966 2968 2969 2970 2972 2973 2975 2976 2978 2979 2981 2982 2984 2985 2987 2989 2991 2993 2994 2996 2998 2999 3001 3003 3005 3006 3008 3009 3011 3012 3014 3015 3017 3018 3019 3021 3022 3023 3024
2948 2947 2947 2947 2947 2946 2946 2946 2946 2946 2946 2946 2946 2946 2946 2947 2947 2948 2949 2950 2951 2952 2953 2954 2956 2957 2958 2959 2961 2962 2964 2965 2967 2968 2969 2971 2973 2974 2976 2977 2979 2980 2982 2984 2985 2987 2989 2990 2992 2994 2996 2998 2999 3001 3003 3004 3006 3008 3009 3011 3012 3014 3015 3017 3018 3019 3021 3022 3024
2945 2945 2945 2944 2944 2944 2944 2944 2944 2944 2944 2944 2944 2944 2944 2944 2945 2946 2946 2947 2949 2950 2951 2952 2953 2954 2955 2957 2958 2960 2961 2963 2964 2966 2967 2969 2970 2972 2974 2975 2977 2978 2980 2982 2983 2985 2987 2989 2990 2992 2994 2996 2998 2999 3001 3003 3005 3006 3008 3009 3010 3012 3014 3015 3017 3018 3019 3021 3022
2943 2943 2942 2942 2942 2942 2942 2941 2941 2941 2941 2941 2941 2941 2942 2942 2943 2943 2944 2945 2946 2947 2949 2949 2951 2952 2953 2954 2956 2957 2959 2960 2962 2964 2965 2967 2968 2970 2971 2973 2975 2976 2978 2979 2981 2983 2985 2986 2988 2990 2992 2994 2996 2998 2999 3001 3003 3004 3006 3007 3009 3010 3012 3014 3015 3017 3018 3019 3021
2941 2940 2940 2940 2940 2939 2939 2939 2939 2939 2939 2939 2939 2939 2939 2939 2940 2941 2942 2942 2944 2945 2946 2947 2948 2949 2951 2952 2953 2955 2956 2958 2959 2961 2963 2964 2966 2968 2969 2971 2973 2974 2976 2978 2979 2981 2983 2984 2986 2988 2990 2992 2994 2996 2998 2999 3001 3003 3004 3006 3007 3009 3011 3012 3014 3015 3017 3018 3020
2938 2938 2938 2938 2938 2937 2937 2937 2937 2937 2936 2936 2937 2937 2937 2937 2938 2938 2939 2940 2941 2942 2943 2944 2946 2947 2948 2949 2951 2952 2954 2956 2957 2959 2961 2962 2964 2965 2967 2969 2971 2972 2974 2976 2977 2979 2981 2982 2984 2986 2988 2990 2992 2994 2996 2998 2999 3001 3002 3004 3005 3007 3009 3011 3012 3014 3015 3017 3019
2936 2936 2936 2936 2935 2935 2935 2935 2935 2934 2934 2934 2934 2934 2935 2935 2935 2936 2936 2937 2939 2940 2941 2942 2944 2944 2946 2947 2949 2950 2952 2953 2955 2957 2958 2960 2962 2964 2965 2967 2969 2970 2972 2974 2975 2977 2979 2980 2982 2984 2986 2988 2990 2992 2994 2996 2998 2999 3000 3002 3004 3006 3008 3009 3011 3012 3014 3016 3017
2934 2934 2934 2934 2934 2933 2933 2933 2933 2932 2932 2932 2932 2932 2932 2933 2933 2934 2934 2935 2936 2937 2939 2940 2941 2942 2944 2945 2946 2948 2949 2951 2953 2954 2956 2958 2959 2961 2963 2965 2966 2968 2970 2972 2973 2975 2976 2978 2980 2982 2984 2986 2988 2990 2992 2994 2995 2997 2999 3000 3002 3004 3006 3008 3009 3011 3013 3014 3016
2932 2932 2932 2931 2931 2931 2931 2931 2930 2930 2930 2930 2930 2930 2930 2930 2931 2931 2932 2933 2934 2935 2936 2937 2939 2940 2941 2943 2944 2945 2947 2949 2950 2952 2954 2956 2958 2959 2961 2963 2964 2966 2968 2969 2971 2973 2974 2976 2978 2980 2982 2984 2986 2989 2990 2992 2994 2995 2997 2999 3001 3003 3004 3006 3008 3010 3011 3013 3014
2930 2930 2929 2929 2929 2929 2929 2929 2928 2928 2928 2928 2927 2927 2928 2928 2928 2929 2929 2930 2931 2932 2934 2935 2936 2938 2939 2940 2942 2943 2945 2947 2948 2950 2952 2954 2955 2957 2959 2960 2962 2964 2966 2967 2969 2971 2972 2974 2976 2978 2980 2982 2984 2986 2989 2990 2992 2993 2995 2997 2999 3001 3003 3005 3007 3009 3010 3011 3013
2929 2928 2928 2927 2927 2927 2927 2927 2926 2926 2925 2925 2925 2925 2925 2925 2926 2926 2927 2928 2929 2930 2931 2933 2934 2935 2937 2938 2939 2941 2943 2944 2946 2948 2950 2951 2953 2955 2957 2959 2960 2962 2964 2965 2967 2969 2970 2972 2974 2976 2979 2980 2983 2984 2986 2988 2990 2992 2994 2995 2998 2999 3002 3004 3005 3007 3009 3010 3011
2927 2926 2926 2925 2925 2925 2924 2924 2924 2924 2923 2923 2923 2923 2923 2923 2924 2924 2924 2925 2926 2928 2929 2930 2932 2933 2934 2936 2937 2939 2940 2942 2944 2946 2948 2949 2951 2953 2955 2956 2958 2960 2962 2964 2965 2967 2969 2970 2972 2974 2977 2979 2981 2983 2984 2986 2988 2990 2992 2994 2996 2998 3000 3002 3004 3005 3007 3008 3010
2925 2924 2924 2924 2923 2923 2923 2922 2922 2922 2921 2921 2921 2920 2921 2921 2921 2922 2922 2923 2924 2925 2926 2928 2929 2931 2932 2934 2935 2937 2938 2940 2942 2944 2945 2947 2949 2951 2953 2954 2956 2958 2960 2962 2963 2965 2967 2969 2970 2973 2975 2977 2979 2981 2982 2984 2986 2988 2990 2992 2994 2997 2999 3000 3002 3004 3005 3007 3008